Погода Бузаубай

Погода Бузаубай : погода сейчас, прогноз погоды и архив. Всё, что Вы хотите узнать о погоде Бузаубай!

Хотите узнать прогноз погоды Бузаубай? Тогда Вам сюда: Погода Бузаубай

Поиск расширенной информации на нашем сайте:

Другие новости

Новости СМИ2

Главная страница сайта

Новости сайта

03.07.2017

Напоминаем, что на нашем специализированном сайте Метеоцентр.Азия вы можете получить высокодетализированные автоматические прогнозы погоды по пунктам России, СНГ и мира в авиационном формате (включающие направление и скорость ветра, видимость, явления погоды, количество и форму облачности, нижнюю и верхнюю границу облачности).


Погода Бузаубай - сегодня

Время (UTC), дата Ветер
(°,м/с) 
Видим.   Явления Облачность Т
(°С)
Тd
(°С)
f(%) Тe
(°С)
Pmin
(гПа)
dP
(гПа)
Po
(мм)
O2
(г/м3)
Тmin Tmax R s Состояние
почвы
00 19.09.17 030 (СВ) н/о    ясно 
+21.9 +7.4 39 +22  1017.1  -0.1  754  280    +1.6       
03 19.09.17 360 (С) 10 км    ясно 
+23.6 +8.4 38 +24  1017.9  0.9  755  279           
06 19.09.17 020 (С) 10 км    ясно 
+30.9 +11.1 30 +33  1017.8  0.2  755  271  +21.9         
09 19.09.17 030 (СВ) 10 км    ясно 
+33.4 +10.5 25 +35  1017  -0.7  755  269           
12 19.09.17 010 (С) 10 км    ясно 
+33.9 +8.9 22 +34  1016.6  -0.4  754  269           
15 19.09.17 360 (С) н/о    ясно 
+29.8 +7.3 24 +30  1017.3  0.5  755  273    +34.4       
18 19.09.17 010 (С) н/о    ясно 
+26.1 +7.8 31 +26  1017.4  755  276    +34.4       
21 19.09.17 010 (С) н/о    ясно 
+24.6 +8.4 36 +25  1017.7  0.3  755  278           
00 20.09.17 360 (С) н/о    ясно 
+22.3 +7.6 39 +22  1017.9  0.1  755  280           
03 20.09.17 010 (С) 10 км    ясно 
+22.6 +8 39 +23  1017.5  0.6  751  278           
06 20.09.17 010 (С) 10 км    ясно 
+27 +9 32 +27  1017.3  -0.1  755  275  +22.3         
09 20.09.17 040 (СВ) 10 км    ясно 
+32.5 +10.6 26 +34  1016.5  -0.5  754  270           
12 20.09.17 360 (С) 10 км    ясно 
+32.7 +9 23 +33  1016.4  -0.1  754  270           
15 20.09.17 020 (С) н/о    ясно 
+28.5 +6.7 25 +29  1017.1  0.5  754  274    +33.3       
18 20.09.17 360 (С) н/о    ясно 
+24.5 +7.1 33 +25  1015.2  -2  753  277    +33.3       
21 20.09.17 360 (С) н/о    ясно 
+22.1 +6.7 37 +22  1014.5  -0.8  752  279           
00 21.09.17 010 (С) н/о    ясно 
+20.2 +6.5 41 +20  1013.8  -0.7  752  281           
03 21.09.17 тихо ()   10 км    ясно 
+17.6 +4.8 43 +18  1014.1  0.6  751  284           
06 21.09.17 тихо ()   10 км    ясно 
+26.3 +8.6 33 +26  1013.9  0.2  752  275  +17.6         
09 21.09.17 010 (С) 10 км    ясно 
+30.6 +8.8 26 +31  1013.4  -0.4  752  271           
12 21.09.17 010 (С) 10 км    ясно 
+32 +7.7 22 +32  1012.8  -0.5  751  270           
15 21.09.17 360 (С) н/о    ясно 
+29.2 +6.5 24 +29  1012.5  -0.4  751  272    +33.1       
18 21.09.17 360 (С) н/о    ясно 
+23.7 +6.1 32 +24  1012.5  -0.3  751  277    +33.1       
21 21.09.17 тихо ()   н/о    ясно 
+21.4 +5.3 35 +21  1012.3  -0.2  751  280           
00 22.09.17 010 (С) н/о    ясно 
+15 +1.5 40 +16  1012.2  -0.4  750  286           
Время (UTC), дата Ветер
(°,м/с) 
Видим.   Явления Облачность Т
(°С)
Тd
(°С)
f(%) Тe
(°С)
Pmin
(гПа)
dP
(гПа)
Po
(мм)
O2
(г/м3)
Тmin Tmax R s Состояние
почвы

Для получения пояснительной информации подведите курсор к названию столбца.

ПОГОДА Бузаубай - архив

Всё, что Вы хотите узнать о погоде Бузаубай - удобно и подробно!

Выберите нужную дату (начиная с 1 января 2015* года) и нажмите кнопку "Найти".
Будут отображены архивные сводки погоды по пункту Бузаубай, начиная с указанной даты.


Отображать данные в формате CSV (для использования в таблицах Excel)


Внимание! Наш архив погоды предназначен исключительно для личного некоммерческого использования в познавательных целях. Если Вам необходимы официальные справки о состоянии погоды (для производственных, юридических, коммерческих и т.п. целей), обращайтесь в органы Росгидромета.

*Примечание: данная дата относится к архиву по метеостанциям СССР (Россия, СНГ, Балтия).
Архив по метеостанциям Зарубежной Европы и Азии (кроме Китая) хранится 10 дней, по другим регионам земного шара (Китай, Африка, Америка, Австралия, Океания) - 1 день.

Бузаубай - район местоположения метеостанции


Название, широта, долгота, высота метеостанции:
Бузаубай 41.8°ш. 62.5°д. 98 м над ур. моря [Узбекистан]

Дополнительная информация

В oтличие oт бoльшинства пoгoдных сайтoв мы публикуем пoдрoбную метеoинфoрмацию в детальнoм прoфессиoнальнoм фoрмате.

Характеристики температуры и влажнoсти вoздуха измеряются на высoте 2 м в тени вдали oт зданий и деревьев.
Скoрoсть ветра измеряется на высoте 10 м (на урoвне рoста челoвека скoрoсть ветра ниже в 1.5-2 раза). Если метеoстанция нахoдится в гoрoде или в лесу, тo скoрoсть ветра занижена на 2-4 м/с пo сравнению с oткрытым местoм. Скoрoсть ветра над акватoриями крупных рек и oзёр, а также на вершинах хoлмoв на 2-5 м/с выше, чем в oбычных услoвиях.
Атмoсфернoе давление в разных тoчках местнoсти мoжет значительнo oтличаться oт давления на метеoстанции, в зависимoсти oт услoвий рельефа (при пoдъёме на 10 м давление пoнижается примернo на 1 мм рт.ст.).